Wind from 090 at 0 knots gusting 1

Air temperature 8.9° C
Dewpoint 1.1° C

Last reported at 2014-Apr-20 10:43 UTC.
Time now 2014-Apr-20 11:41 UTC

Location: S 35°23' E 149°12'.
View on Google Maps.

See reports from other nearby stations

Tides Stations Pressure Air Temp Water Temp Dewpoint Dewpoint depression Visibility Wind Speed Wind Dir Waves Ship positions

  
sailing weather and tide predictions

DW8673 Jerrabomberra AU weather

date/time (UTC)wind fromknots sea level pressurealtimeterstation pressurevisibilityair tempwater tempwave heightnotes
2014-Apr-20 10:43 090 0 gusting 1 8.9
2014-Apr-20 10:33 090 8.9
2014-Apr-20 10:13 097 0 gusting 0 9.4
2014-Apr-20 09:13 098 0 gusting 1 10.6
2014-Apr-20 08:43 062 0 gusting 2 11.1
2014-Apr-20 08:33 008 0 gusting 1 11.1
2014-Apr-20 08:13 028 0 gusting 1 11.7
2014-Apr-20 07:43 112 0 gusting 2 12.8
2014-Apr-20 07:33 028 1 gusting 5 12.8
2014-Apr-20 07:13 338 2 gusting 5 13.9
2014-Apr-20 07:03 320 2 gusting 6 14.4
2014-Apr-20 06:43 318 3 gusting 5 16.7
2014-Apr-20 06:33 357 2 gusting 7 16.1
2014-Apr-20 06:13 349 3 gusting 6 18.3
2014-Apr-20 06:03 130 4 gusting 7 17.8
2014-Apr-20 05:43 329 4 gusting 7 17.8
2014-Apr-20 05:33 289 4 gusting 6 18.3
2014-Apr-20 05:13 349 5 gusting 6 18.9
2014-Apr-20 05:03 020 4 gusting 6 18.9
2014-Apr-20 04:43 296 2 gusting 6 19.4
2014-Apr-20 04:33 002 3 gusting 6 19.4
2014-Apr-20 04:13 323 4 gusting 6 19.4
2014-Apr-20 04:03 292 2 gusting 6 19.4
2014-Apr-20 03:43 090 2 gusting 6 19.4
2014-Apr-20 03:33 042 5 gusting 7 19.4
2014-Apr-20 03:13 042 2 gusting 6 20.0
2014-Apr-20 03:03 006 2 gusting 5 20.0
2014-Apr-20 02:43 321 1 gusting 6 20.0
2014-Apr-20 02:33 242 1 gusting 6 19.4
2014-Apr-20 02:13 246 2 gusting 6 18.9
2014-Apr-20 02:03 352 1 gusting 6 18.9
2014-Apr-20 01:43 359 1 gusting 5 18.9
2014-Apr-20 01:33 292 1 gusting 5 18.3
2014-Apr-20 01:13 041 2 gusting 5 17.8
2014-Apr-20 01:03 002 1 gusting 6 17.2
2014-Apr-20 00:43 303 2 gusting 7 16.7
2014-Apr-20 00:33 339 2 gusting 5 16.7
2014-Apr-20 00:13 295 3 gusting 6 15.6
2014-Apr-20 00:03 347 4 gusting 6 15.0
2014-Apr-19 23:43 344 1 gusting 5 14.4
2014-Apr-19 23:33 352 0 gusting 5 13.3
2014-Apr-19 23:13 351 2 gusting 5 12.2
2014-Apr-19 23:03 006 1 gusting 4 11.7
2014-Apr-19 22:43 321 0 gusting 2 10.6
2014-Apr-19 22:33 326 9.4
2014-Apr-19 22:13 357 0 gusting 1 7.2
2014-Apr-19 22:03 287 0 gusting 1 5.6
2014-Apr-19 21:43 248 3.9
2014-Apr-19 21:33 248 3.3
2014-Apr-19 21:13 158 2.2
2014-Apr-19 21:03 158 2.2
2014-Apr-19 20:43 158 2.2
2014-Apr-19 20:33 219 2.2
2014-Apr-19 20:13 158 2.8
2014-Apr-19 20:03 158 2.8
2014-Apr-19 19:43 186 2.8
2014-Apr-19 19:33 112 2.8
2014-Apr-19 19:13 180 2.8
2014-Apr-19 19:03 112 2.8
2014-Apr-19 18:43 112 3.3
2014-Apr-19 18:33 112 3.3
2014-Apr-19 18:13 112 3.3
2014-Apr-19 18:03 112 3.3
2014-Apr-19 17:43 112 3.3
2014-Apr-19 17:33 112 3.9
2014-Apr-19 17:13 225 3.9
2014-Apr-19 17:03 248 3.9
2014-Apr-19 16:43 248 4.4
2014-Apr-19 16:33 158 4.4
2014-Apr-19 16:13 158 5.0
2014-Apr-19 16:03 090 5.0
2014-Apr-19 15:43 338 5.0
2014-Apr-19 15:33 090 5.6
2014-Apr-19 15:13 090 5.6
2014-Apr-19 15:03 090 5.6
2014-Apr-19 14:43 090 5.6
2014-Apr-19 14:33 135 6.1
2014-Apr-19 14:13 135 6.1
2014-Apr-19 14:03 338 6.7
2014-Apr-19 13:43 135 6.7
2014-Apr-19 13:33 135 7.2
2014-Apr-19 13:13 112 7.8
2014-Apr-19 13:03 112 7.8
2014-Apr-19 12:43 205 8.3
2014-Apr-19 12:33 202 8.3
2014-Apr-19 12:13 248 8.9
2014-Apr-19 12:03 040 8.9
2014-Apr-19 11:43 112 8.3
2014-Apr-19 11:33 090 8.3
2014-Apr-19 11:13 180 8.3
2014-Apr-19 11:03 180 8.3
2014-Apr-19 10:43 202 8.9
2014-Apr-19 10:33 202 8.9
2014-Apr-19 10:13 206 9.4
2014-Apr-19 10:03 112 10.0
2014-Apr-19 09:43 090 10.6
2014-Apr-19 09:33 090 11.1
2014-Apr-19 09:13 090 0 gusting 0 11.7
2014-Apr-19 09:03 100 11.7
2014-Apr-19 08:43 090 12.2
2014-Apr-19 08:33 12.8
2014-Apr-19 08:13 031 0 gusting 2 12.8
2014-Apr-19 08:03 359 1 gusting 4 13.3
2014-Apr-19 07:43 022 1 gusting 2 13.9
2014-Apr-19 07:33 290 1 gusting 5 14.4
2014-Apr-19 07:13 324 1 gusting 6 16.1
2014-Apr-19 07:03 342 1 gusting 5 16.7
2014-Apr-19 06:43 321 2 gusting 5 18.3
2014-Apr-19 06:33 306 1 gusting 6 20.0
2014-Apr-19 06:13 229 1 gusting 4 20.0
2014-Apr-19 06:03 332 1 gusting 5 20.6
2014-Apr-19 05:43 286 1 gusting 2 20.6
2014-Apr-19 05:33 295 1 gusting 4 20.6
2014-Apr-19 05:13 304 0 gusting 2 18.9
2014-Apr-19 05:03 297 1 gusting 4 20.6
2014-Apr-19 04:43 158 0 gusting 2 21.1
2014-Apr-19 04:33 357 1 gusting 5 20.6
2014-Apr-19 04:13 178 0 gusting 4 20.6
2014-Apr-19 04:03 132 1 gusting 4 21.1
2014-Apr-19 03:43 104 1 gusting 4 21.1
2014-Apr-19 03:33 297 0 gusting 6 21.1
2014-Apr-19 03:13 254 2 gusting 5 21.1
2014-Apr-19 03:03 181 1 gusting 4 21.1
2014-Apr-19 02:43 248 2 gusting 4 20.6
2014-Apr-19 02:33 241 1 gusting 5 20.0
2014-Apr-19 02:13 253 2 gusting 5 20.0
2014-Apr-19 02:03 154 0 gusting 4 20.0
2014-Apr-19 01:43 256 1 gusting 4 19.4
2014-Apr-19 01:33 279 1 gusting 4 19.4
2014-Apr-19 01:13 262 1 gusting 5 18.3
2014-Apr-19 01:03 241 1 gusting 4 18.3
2014-Apr-19 00:43 284 1 gusting 6 17.8
2014-Apr-19 00:33 075 1 gusting 4 17.8
2014-Apr-19 00:13 217 1 gusting 6 16.7
2014-Apr-19 00:03 244 1 gusting 6 16.1
2014-Apr-18 23:43 176 2 gusting 6 15.6
2014-Apr-18 23:33 271 1 gusting 6 14.4
2014-Apr-18 23:13 180 1 gusting 5 13.9
2014-Apr-18 23:03 166 4 gusting 6 13.3
2014-Apr-18 22:43 086 5 gusting 6 13.3
2014-Apr-18 22:33 158 2 gusting 8 12.8
2014-Apr-18 22:03 140 4 gusting 7 10.6
2014-Apr-18 21:43 162 2 gusting 7 8.9
2014-Apr-18 21:33 127 2 gusting 6 8.9
2014-Apr-18 21:13 166 4 gusting 6 8.3
2014-Apr-18 21:03 122 3 gusting 7 8.3
2014-Apr-18 20:43 125 4 gusting 6 8.3
2014-Apr-18 20:33 106 4 gusting 7 8.3
2014-Apr-18 20:13 121 4 gusting 12 8.9
2014-Apr-18 20:03 118 3 gusting 12 8.9
2014-Apr-18 19:43 130 3 gusting 7 8.9
2014-Apr-18 19:33 114 3 gusting 7 8.9
2014-Apr-18 19:13 137 2 gusting 10 8.9
2014-Apr-18 19:03 119 4 gusting 8 8.9
2014-Apr-18 18:43 153 4 gusting 8 8.3
2014-Apr-18 18:33 140 3 gusting 10 8.3
2014-Apr-18 18:13 278 8.3
2014-Apr-18 18:03 136 0 gusting 5 8.3
2014-Apr-18 17:43 158 1 gusting 5 8.9
2014-Apr-18 17:33 183 1 gusting 5 8.3
2014-Apr-18 17:13 237 0 gusting 2 8.9
2014-Apr-18 17:03 156 1 gusting 7 9.4
2014-Apr-18 16:43 093 1 gusting 4 8.9
2014-Apr-18 16:33 135 1 gusting 6 8.9
2014-Apr-18 16:13 223 0 gusting 4 8.9
2014-Apr-18 16:03 177 0 gusting 4 8.3
2014-Apr-18 15:43 169 8.9
2014-Apr-18 15:33 091 8.9
2014-Apr-18 15:13 204 9.4
2014-Apr-18 15:03 125 0 gusting 0 9.4
2014-Apr-18 14:43 270 10.0
2014-Apr-18 14:33 112 0 gusting 4 10.6
2014-Apr-18 14:13 080 2 gusting 11 11.1
2014-Apr-18 14:03 136 4 gusting 11 11.1
2014-Apr-18 13:43 103 4 gusting 7 11.1
2014-Apr-18 13:33 132 5 gusting 10 11.1
2014-Apr-18 13:13 163 3 gusting 7 11.7
2014-Apr-18 13:03 141 4 gusting 8 12.2
2014-Apr-18 12:43 186 1 gusting 5 12.8
2014-Apr-18 12:33 146 2 gusting 6 13.3
2014-Apr-18 12:13 192 1 gusting 2 14.4
2014-Apr-18 12:03 209 0 gusting 0 14.4
2014-Apr-18 11:43 112 14.4
2014-Apr-18 11:33 237 14.4
2014-Apr-18 11:13 340 0 gusting 1 15.0
2014-Apr-18 11:03 302 0 gusting 1 15.0